| time (UTC) | temp C | wind direction | speed KPH | gust KPH | rain 1hr cm | rain 24hr cm | rain mn cm | humidity % | barometer mb |
| 20260507141515 | 25 | 20 | 0.0 | 4.8 | 0.00 | 0.00 | 0.00 | 40 | 1011.8 |
| 20260507140012 | 24 | 4 | 0.0 | 11.3 | 0.00 | 0.00 | 0.00 | 41 | 1011.9 |
| 20260507134513 | 24 | 360 | 0.0 | 8.0 | 0.00 | 0.00 | 0.00 | 42 | 1011.9 |
| 20260507133012 | 24 | 16 | 1.6 | 6.4 | 0.00 | 0.00 | 0.00 | 41 | 1011.9 |
| 20260507131511 | 24 | 15 | 0.0 | 8.0 | 0.00 | 0.00 | 0.00 | 43 | 1012.0 |
| 20260507130110 | 24 | 29 | 0.0 | 11.3 | 0.00 | 0.00 | 0.00 | 42 | 1012.0 |
| 20260507124509 | 25 | 15 | 0.0 | 4.8 | 0.00 | 0.00 | 0.00 | 42 | 1012.1 |
| 20260507123010 | 25 | 248 | 0.0 | 8.0 | 0.00 | 0.00 | 0.00 | 41 | 1012.1 |
| 20260507121508 | 25 | 18 | 0.0 | 3.2 | 0.00 | 0.00 | 0.00 | 41 | 1012.2 |
| 20260507120007 | 24 | 354 | 0.0 | 8.0 | 0.00 | 0.00 | 0.00 | 43 | 1012.3 |
| 20260507114506 | 24 | 16 | 4.8 | 11.3 | 0.00 | 0.00 | 0.00 | 41 | 1012.5 |
| 20260507113006 | 23 | 40 | 1.6 | 12.9 | 0.00 | 0.00 | 0.00 | 44 | 1012.5 |
| 20260507111506 | 24 | 4 | 4.8 | 14.5 | 0.00 | 0.00 | 0.00 | 41 | 1012.7 |
| 20260507110005 | 25 | 10 | 0.0 | 6.4 | 0.00 | 0.00 | 0.00 | 40 | 1012.8 |
| 20260507104504 | 25 | 30 | 0.0 | 6.4 | 0.00 | 0.00 | 0.00 | 41 | 1012.9 |
| 20260507103003 | 25 | 18 | 0.0 | 9.7 | 0.00 | 0.00 | 0.00 | 42 | 1013.0 |
| 20260507101503 | 26 | 11 | 0.0 | 4.8 | 0.00 | 0.00 | 0.00 | 39 | 1013.1 |
| 20260507100002 | 25 | 337 | 0.0 | 8.0 | 0.00 | 0.00 | 0.00 | 40 | 1013.2 |
| 20260507094601 | 25 | 5 | 0.0 | 3.2 | 0.00 | 0.00 | 0.00 | 41 | 1013.2 |
| 20260507093059 | 25 | 17 | 0.0 | 3.2 | 0.00 | 0.00 | 0.00 | 46 | 1013.2 |
| 20260507091554 | 24 | 6 | 0.0 | 6.4 | 0.00 | 0.00 | 0.00 | 50 | 1013.2 |
| 20260507090058 | 25 | 310 | 0.0 | 3.2 | 0.00 | 0.00 | 0.00 | 49 | 1013.2 |
| 20260507084603 | 25 | 17 | 0.0 | 1.6 | 0.00 | 0.00 | 0.00 | 50 | 1013.1 |
| 20260507083051 | 24 | 13 | 0.0 | 1.6 | 0.00 | 0.00 | 0.00 | 49 | 1013.1 |
| 20260507081550 | 23 | 22 | 0.0 | 4.8 | 0.00 | 0.00 | 0.00 | 50 | 1013.0 |
| 20260507080053 | 23 | 31 | 0.0 | 3.2 | 0.00 | 0.00 | 0.00 | 51 | 1013.0 |
| 20260507074548 | 23 | 342 | 0.0 | 0.0 | 0.00 | 0.00 | 0.00 | 51 | 1013.1 |
| 20260507073047 | 24 | 2 | 0.0 | 3.2 | 0.00 | 0.00 | 0.00 | 48 | 1013.0 |
| 20260507071547 | 24 | 18 | 0.0 | 0.0 | 0.00 | 0.00 | 0.00 | 48 | 1012.9 |
| 20260507070059 | 22 | 18 | 0.0 | 3.2 | 0.00 | 0.00 | 0.00 | 53 | 1012.8 |
| 20260507064546 | 21 | 18 | 0.0 | 4.8 | 0.00 | 0.00 | 0.00 | 55 | 1012.7 |
| 20260507063035 | 20 | 22 | 0.0 | 1.6 | 0.00 | 0.00 | 0.00 | 60 | 1012.6 |
| 20260507061529 | 18 | 22 | 0.0 | 0.0 | 0.00 | 0.00 | 0.00 | 69 | 1012.5 |
| 20260507060029 | 14 | 22 | 0.0 | 0.0 | 0.00 | 0.00 | 0.00 | 80 | 1012.4 |
| 20260507054521 | 13 | 22 | 0.0 | 0.0 | 0.00 | 0.00 | 0.00 | 86 | 1012.3 |
| 20260507053020 | 12 | 22 | 0.0 | 0.0 | 0.00 | 0.00 | 0.00 | 90 | 1012.0 |
| 20260507051518 | 11 | 22 | 0.0 | 0.0 | 0.00 | 0.00 | 0.00 | 92 | 1011.9 |
| 20260507050036 | 10 | 22 | 0.0 | 0.0 | 0.00 | 0.00 | 0.00 | 92 | 1011.8 |
| 20260507044514 | 10 | 22 | 0.0 | 0.0 | 0.00 | 0.00 | 0.00 | 92 | 1011.6 |
| 20260507043012 | 10 | 22 | 0.0 | 0.0 | 0.00 | 0.00 | 0.00 | 92 | 1011.4 |
| 20260507041513 | 9 | 22 | 0.0 | 0.0 | 0.00 | 0.00 | 0.00 | 91 | 1011.4 |
| 20260507040008 | 10 | 22 | 0.0 | 0.0 | 0.00 | 0.00 | 0.00 | 90 | 1011.1 |
| 20260507034507 | 10 | 22 | 0.0 | 0.0 | 0.00 | 0.00 | 0.00 | 90 | 1011.1 |
| 20260507033005 | 10 | 22 | 0.0 | 0.0 | 0.00 | 0.00 | 0.00 | 89 | 1011.0 |
| 20260507031501 | 10 | 22 | 0.0 | 0.0 | 0.00 | 0.00 | 0.00 | 89 | 1011.0 |
| 20260507030105 | 10 | 22 | 0.0 | 0.0 | 0.00 | 0.00 | 0.00 | 89 | 1010.9 |
| 20260507024600 | 11 | 22 | 0.0 | 0.0 | 0.00 | 0.00 | 0.00 | 89 | 1010.9 |
| 20260507023058 | 11 | 22 | 0.0 | 0.0 | 0.00 | 0.00 | 0.00 | 88 | 1010.9 |
| 20260507021627 | 11 | 22 | 0.0 | 0.0 | 0.00 | 0.00 | 0.00 | 88 | 1011.0 |
| 20260507020110 | 11 | 22 | 0.0 | 1.6 | 0.00 | 0.00 | 0.00 | 88 | 1011.0 |
| 20260507014619 | 11 | 22 | 0.0 | 0.0 | 0.00 | 0.00 | 0.00 | 87 | 1010.8 |
| 20260507013052 | 11 | 22 | 0.0 | 0.0 | 0.00 | 0.00 | 0.00 | 86 | 1010.6 |
| 20260507011558 | 11 | 22 | 0.0 | 1.6 | 0.00 | 0.00 | 0.00 | 85 | 1010.6 |
| 20260507010048 | 11 | 15 | 0.0 | 0.0 | 0.00 | 0.00 | 0.00 | 86 | 1010.5 |
| 20260507004546 | 12 | 16 | 0.0 | 0.0 | 0.00 | 0.00 | 0.00 | 85 | 1010.5 |
| 20260507003045 | 12 | 15 | 0.0 | 0.0 | 0.00 | 0.00 | 0.00 | 84 | 1010.5 |
| 20260507001558 | 12 | 15 | 0.0 | 0.0 | 0.00 | 0.00 | 0.00 | 84 | 1010.6 |
| 20260507000053 | 12 | 15 | 0.0 | 0.0 | 0.00 | 0.00 | 0.00 | 82 | 1010.5 |
| 20260506234554 | 12 | 15 | 0.0 | 1.6 | 0.00 | 0.00 | 0.00 | 81 | 1010.6 |
| 20260506233044 | 13 | 15 | 0.0 | 0.0 | 0.00 | 0.00 | 0.00 | 81 | 1010.6 |
| 20260506231538 | 12 | 15 | 0.0 | 0.0 | 0.00 | 0.00 | 0.00 | 80 | 1010.6 |
| 20260506230037 | 12 | 15 | 0.0 | 0.0 | 0.00 | 0.00 | 0.00 | 81 | 1010.6 |
| 20260506224536 | 12 | 15 | 0.0 | 1.6 | 0.00 | 0.00 | 0.00 | 82 | 1010.6 |
| 20260506223037 | 13 | 15 | 0.0 | 1.6 | 0.00 | 0.00 | 0.00 | 83 | 1010.5 |
| 20260506221541 | 13 | 15 | 0.0 | 0.0 | 0.00 | 0.00 | 0.00 | 83 | 1010.6 |
| 20260506220033 | 13 | 15 | 0.0 | 0.0 | 0.00 | 0.00 | 0.00 | 82 | 1010.6 |
| 20260506214530 | 13 | 15 | 0.0 | 1.6 | 0.00 | 0.00 | 0.00 | 81 | 1010.5 |
| 20260506213028 | 13 | 13 | 0.0 | 1.6 | 0.00 | 0.00 | 0.00 | 81 | 1010.4 |
| 20260506211539 | 14 | 13 | 0.0 | 1.6 | 0.00 | 0.00 | 0.00 | 82 | 1010.3 |
| 20260506210034 | 14 | 8 | 0.0 | 3.2 | 0.00 | 0.00 | 0.00 | 82 | 1010.1 |
| 20260506204531 | 15 | 34 | 0.0 | 1.6 | 0.00 | 0.00 | 0.00 | 82 | 1010.0 |
| 20260506203024 | 15 | 23 | 0.0 | 3.2 | 0.00 | 0.00 | 0.00 | 83 | 1009.9 |
| 20260506201533 | 15 | 20 | 0.0 | 1.6 | 0.00 | 0.00 | 0.00 | 83 | 1009.9 |
| 20260506200029 | 15 | 20 | 0.0 | 1.6 | 0.00 | 0.00 | 0.00 | 84 | 1009.7 |
| 20260506194522 | 16 | 32 | 0.0 | 1.6 | 0.00 | 0.00 | 0.00 | 84 | 1009.4 |
| 20260506193032 | 16 | 34 | 0.0 | 4.8 | 0.00 | 0.00 | 0.00 | 83 | 1009.2 |
| 20260506191521 | 16 | 20 | 0.0 | 6.4 | 0.00 | 0.00 | 0.00 | 83 | 1009.0 |
| 20260506190020 | 16 | 26 | 0.0 | 3.2 | 0.00 | 0.00 | 0.00 | 83 | 1008.8 |
| 20260506184519 | 16 | 22 | 0.0 | 1.6 | 0.00 | 0.00 | 0.00 | 85 | 1008.5 |
| 20260506183019 | 17 | 46 | 0.0 | 3.2 | 0.00 | 0.00 | 0.00 | 86 | 1008.5 |
| 20260506181534 | 17 | 32 | 0.0 | 1.6 | 0.00 | 0.00 | 0.00 | 85 | 1008.5 |
| 20260506180017 | 17 | 28 | 0.0 | 1.6 | 0.00 | 0.00 | 0.00 | 85 | 1008.3 |
| 20260506174517 | 17 | 27 | 0.0 | 1.6 | 0.00 | 0.00 | 0.00 | 84 | 1008.2 |
| 20260506173019 | 17 | 337 | 0.0 | 1.6 | 0.00 | 0.00 | 0.00 | 84 | 1008.1 |
| 20260506171517 | 17 | 13 | 0.0 | 6.4 | 0.00 | 0.00 | 0.00 | 85 | 1007.9 |
| 20260506170014 | 18 | 16 | 0.0 | 6.4 | 0.00 | 0.00 | 0.00 | 85 | 1007.8 |
| 20260506164514 | 18 | 34 | 0.0 | 8.0 | 0.00 | 0.00 | 0.00 | 86 | 1007.8 |
| 20260506163016 | 18 | 19 | 0.0 | 4.8 | 0.00 | 0.00 | 0.00 | 86 | 1007.9 |
| 20260506161512 | 18 | 352 | 0.0 | 6.4 | 0.00 | 0.00 | 0.00 | 87 | 1008.0 |
| 20260506160012 | 18 | 37 | 0.0 | 3.2 | 0.00 | 0.00 | 0.00 | 88 | 1008.0 |
| 20260506154511 | 18 | 35 | 0.0 | 11.3 | 0.00 | 0.00 | 0.00 | 92 | 1007.9 |
| 20260506153010 | 17 | 262 | 0.0 | 8.0 | 0.00 | 0.00 | 0.00 | 96 | 1007.9 |
| 20260506151509 | 17 | 4 | 1.6 | 8.0 | 0.00 | 0.00 | 0.00 | 96 | 1007.8 |
| 20260506150014 | 18 | 34 | 0.0 | 8.0 | 0.00 | 0.00 | 0.00 | 96 | 1007.9 |
| 20260506144507 | 18 | 17 | 0.0 | 8.0 | 0.00 | 0.00 | 0.00 | 96 | 1007.9 |
| 20260506143005 | 17 | 46 | 0.0 | 9.7 | 0.00 | 0.00 | 0.00 | 97 | 1008.0 |